Location: Ernez
(36.4595°N, 29.8755°E)
Time: 08:06:55
(UTC+00:00)

ATLAS 5 CENTAUR R/B - Pass Details

Date: 13 November 2025
Orbit: 373 x 1090 km, 63.3° (Epoch: 04 December)

Event Time Altitude Azimuth Distance (km) Brightness Sun altitude
Rises 16:44:33 0° 326° (NNW) 2,890 5.4 -22.5°
Reaches altitude 10° 16:46:37 10° 326° (NW) 2,084 4.6 -22.9°
Maximum altitude 16:51:25 82° 240° (WSW) 783 2.0 -23.8°
Enters shadow 16:54:48 26° 155° (SSE) 1,617 3.5 -24.5°
